Temp
23 23 23 22 23 23 23 23 22 22 23 23 23 23 23 23 23 23 23 22 22 22 22 22 21 21 20 20 20 20 20 20 21 21 20 20 20 20 21 21 21 21
23 23 23 23 23 23 23 23 23 23 23 23 23 23 23 23 23 23 23 23 22 22 22 22 22 21 21 21 21 20 20 21 21 21 21 20 20 20 21 21 21 21
23 23 23 23 23 23 23 23 23 23 23 23 23 23 23 23 23 23 23 23 23 22 22 22 22 22 21 21 21 21 21 21 21 21 21 21 21 21 21 20 21 21
24 24 24 23 23 23 23 23 23 23 23 23 23 23 23 23 23 23 23 23 23 23 23 23 22 22 22 22 22 21 21 21 21 21 21 21 21 21 21 21 20 21
24 24 24 24 24 23 23 23 23 23 23 23 23 23 23 22 22 22 22 23 23 23 23 23 23 22 22 22 22 22 22 22 21 21 22 22 22 21 21 21 21 21
24 24 24 24 24 24 23 23 23 24 24 24 23 23 23 22 22 22 22 23 23 23 23 23 22 22 22 22 22 22 22 22 22 22 22 22 22 22 22 21 21 21
24 24 24 24 24 24 24 24 24 24 24 24 24 23 23 22 22 22 22 22 23 23 23 23 23 23 23 23 22 22 22 22 22 22 22 22 22 22 22 22 22 21
23 24 24 24 24 24 24 24 24 24 24 24 24 23 23 22 22 22 22 22 22 23 23 23 23 23 23 23 23 23 23 23 22 22 22 22 22 22 22 22 22 22
22 23 24 24 24 24 24 24 24 24 24 24 23 23 23 22 22 22 22 22 22 22 23 23 23 23 23 23 23 23 23 23 23 23 23 23 23 23 22 22 22 22
21 22 23 23 23 23 24 24 24 24 23 23 23 23 23 23 22 22 22 22 22 22 23 23 23 23 23 23 23 23 23 23 23 23 23 23 23 23 23 22 22 22
21 21 22 23 24 24 24 23 23 23 23 23 23 23 23 23 22 22 22 22 22 23 23 23 23 23 23 23 23 23 23 23 23 23 23 23 23 23 23 23 23 23
21 21 22 23 24 24 24 24 23 23 23 23 23 23 22 22 22 22 22 22 22 23 23 23 24 24 24 23 23 23 23 23 23 23 23 23 23 23 23 23 23 23
21 21 22 23 24 24 24 24 23 23 23 23 23 23 22 22 22 22 22 22 23 23 23 23 23 23 24 24 24 24 24 23 23 23 23 23 23 23 23 23 23 23
21 21 21 22 23 24 24 24 23 23 23 23 23 23 22 22 22 22 22 22 23 23 23 23 23 23 23 23 23 23 24 24 24 23 23 23 23 23 23 23 23 23
21 21 21 21 22 23 23 23 23 23 23 23 23 23 23 22 22 22 22 22 22 23 23 23 23 22 23 23 23 23 23 23 24 23 23 23 23 23 23 23 23 23
21 21 21 21 22 23 23 23 23 23 23 22 23 23 23 22 22 22 22 22 22 23 22 22 22 22 22 23 23 23 23 23 23 23 23 23 23 23 23 23 23 23
21 21 21 21 22 22 23 23 23 23 23 22 23 23 22 22 22 22 22 22 22 23 22 22 22 22 22 23 23 23 23 23 23 23 23 23 23 23 23 23 24 23
21 21 21 21 21 22 23 23 23 23 23 22 22 22 22 22 22 22 22 22 22 22 22 22 22 23 23 23 23 23 23 23 23 23 23 23 23 23 23 23 23 23
22 21 21 21 21 22 22 23 23 23 23 23 22 23 22 22 22 22 22 22 22 22 22 22 23 23 23 23 24 24 24 23 23 23 23 23 23 23 23 23 23 23
22 22 22 22 22 22 22 22 23 23 23 23 23 23 22 22 22 22 22 22 22 22 22 22 23 23 23 23 24 24 24 23 23 23 23 23 23 23 23 23 23 23
23 22 22 22 22 22 22 22 22 23 23 23 22 22 22 23 22 22 22 22 22 22 22 22 22 23 23 23 23 24 24 23 23 23 23 23 23 23 23 23 23 23
24 23 23 22 22 22 22 22 22 22 22 22 22 22 22 23 22 22 22 22 22 22 22 22 22 22 23 23 23 23 23 23 23 22 22 22 23 23 23 23 23 23
24 24 23 23 23 22 22 22 22 22 22 22 22 22 22 22 22 22 22 22 22 22 22 22 22 22 22 22 23 23 23 22 22 22 22 22 22 23 23 23 23 23
24 24 24 23 23 23 23 22 22 22 23 23 22 22 22 22 23 22 22 22 22 22 22 22 22 22 22 22 23 23 22 22 22 22 22 22 22 22 22 22 22 23
24 24 24 24 24 23 23 23 23 22 23 23 22 22 22 22 23 22 22 22 22 22 22 22 22 22 22 22 22 22 22 22 22 22 22 22 22 23 23 22 22 22
24 24 24 24 24 24 23 23 23 23 23 23 23 23 22 22 22 22 22 22 22 22 22 22 22 22 22 22 22 22 22 22 22 22 22 22 23 23 23 23 23 22
Height
1562 1564 1566 1568 1570 1572 1574 1576 1577 1579 1580 1581 1582 1583 1585 1586 1587 1588 1589 1590 1591 1592 1593 1594 1595 1596 1597 1598 1600 1600 1601 1601 1602 1603 1603 1604 1604 1605 1606 1606 1607 1607
1559 1561 1564 1566 1567 1569 1571 1574 1575 1577 1578 1579 1581 1582 1583 1585 1586 1587 1588 1589 1590 1591 1592 1593 1594 1595 1596 1597 1598 1599 1600 1600 1601 1602 1602 1603 1604 1604 1605 1605 1606 1606
1556 1558 1560 1563 1565 1567 1569 1571 1573 1575 1576 1578 1579 1581 1582 1583 1584 1585 1586 1588 1589 1590 1591 1592 1593 1594 1595 1596 1597 1598 1599 1600 1600 1601 1602 1602 1603 1603 1604 1604 1605 1606
1552 1555 1557 1560 1562 1564 1566 1568 1570 1572 1574 1575 1577 1579 1580 1582 1583 1583 1585 1586 1587 1588 1589 1591 1592 1593 1594 1595 1596 1597 1598 1598 1599 1600 1600 1601 1602 1603 1603 1603 1604 1605
1548 1551 1554 1556 1559 1562 1564 1565 1567 1569 1571 1573 1574 1576 1578 1579 1581 1582 1583 1584 1585 1587 1588 1589 1590 1591 1592 1593 1594 1595 1596 1597 1598 1598 1599 1600 1601 1601 1602 1602 1603 1603
1544 1547 1550 1553 1556 1558 1561 1562 1564 1566 1568 1570 1572 1573 1575 1577 1578 1579 1581 1582 1583 1584 1586 1587 1588 1589 1590 1591 1592 1593 1594 1595 1596 1597 1597 1598 1599 1600 1601 1601 1602 1602
1540 1543 1546 1549 1552 1555 1557 1559 1561 1563 1564 1567 1569 1570 1572 1574 1575 1577 1578 1579 1581 1582 1583 1585 1586 1587 1588 1589 1590 1591 1592 1593 1594 1595 1596 1596 1597 1598 1599 1600 1600 1601
1536 1539 1542 1545 1548 1551 1553 1555 1557 1559 1561 1563 1565 1567 1569 1571 1572 1574 1575 1577 1578 1579 1581 1582 1584 1585 1586 1587 1588 1589 1590 1591 1592 1593 1594 1595 1595 1596 1597 1598 1599 1599
1532 1534 1537 1541 1543 1546 1548 1551 1553 1556 1558 1560 1561 1564 1566 1568 1569 1571 1572 1574 1575 1577 1578 1579 1581 1582 1583 1584 1585 1587 1587 1588 1589 1590 1592 1593 1593 1594 1595 1596 1597 1598
1528 1530 1533 1536 1538 1541 1544 1546 1549 1552 1554 1556 1558 1560 1562 1564 1566 1568 1569 1571 1572 1574 1575 1577 1578 1579 1581 1582 1583 1584 1585 1586 1587 1588 1589 1591 1592 1592 1593 1594 1595 1596
1524 1526 1528 1530 1533 1536 1539 1542 1545 1548 1551 1553 1555 1557 1559 1561 1563 1565 1566 1567 1568 1570 1572 1574 1575 1576 1578 1579 1580 1582 1583 1584 1585 1586 1587 1588 1590 1591 1592 1592 1593 1594
1518 1521 1523 1525 1528 1531 1534 1538 1541 1544 1547 1549 1551 1553 1555 1557 1559 1561 1562 1564 1565 1567 1568 1570 1572 1573 1574 1576 1578 1579 1580 1581 1582 1583 1585 1586 1587 1588 1589 1590 1591 1592
1513 1516 1518 1521 1524 1527 1531 1534 1537 1540 1542 1545 1547 1550 1552 1553 1555 1557 1559 1560 1562 1563 1565 1567 1568 1570 1571 1573 1574 1576 1577 1578 1579 1581 1582 1583 1584 1586 1587 1588 1589 1590
1508 1511 1514 1517 1521 1524 1527 1530 1533 1535 1538 1541 1543 1545 1548 1550 1551 1553 1555 1557 1559 1560 1562 1563 1565 1566 1568 1569 1571 1573 1574 1575 1577 1578 1579 1580 1581 1583 1584 1585 1586 1587
1505 1508 1511 1515 1518 1521 1523 1526 1529 1532 1534 1537 1539 1541 1544 1546 1548 1550 1552 1554 1555 1557 1558 1560 1561 1562 1564 1566 1568 1569 1571 1572 1574 1575 1576 1577 1579 1580 1581 1582 1583 1584
1503 1506 1508 1511 1514 1516 1519 1522 1525 1528 1530 1533 1535 1537 1540 1543 1545 1547 1548 1550 1552 1553 1555 1556 1557 1559 1560 1562 1565 1566 1568 1569 1571 1572 1573 1575 1576 1577 1578 1579 1580 1581
1501 1503 1506 1508 1510 1512 1515 1518 1521 1524 1526 1529 1531 1533 1536 1539 1541 1543 1544 1546 1548 1550 1551 1552 1553 1555 1557 1559 1561 1563 1565 1567 1568 1569 1570 1572 1573 1574 1575 1576 1577 1578
1500 1501 1503 1505 1507 1509 1512 1514 1517 1520 1522 1525 1527 1529 1532 1535 1537 1539 1540 1543 1544 1546 1547 1548 1550 1551 1553 1555 1558 1560 1562 1563 1565 1566 1567 1569 1570 1571 1572 1573 1574 1575
1500 1500 1501 1503 1504 1506 1509 1512 1514 1516 1518 1520 1523 1525 1528 1531 1533 1535 1537 1539 1541 1542 1543 1545 1546 1548 1550 1552 1554 1556 1558 1560 1562 1563 1564 1565 1567 1567 1569 1570 1571 1572
1499 1499 1499 1501 1502 1504 1507 1509 1511 1513 1514 1517 1519 1522 1524 1526 1529 1532 1533 1535 1537 1539 1540 1541 1543 1544 1546 1548 1550 1552 1555 1557 1558 1560 1561 1562 1563 1564 1565 1566 1567 1568
1495 1496 1497 1498 1500 1502 1504 1506 1508 1509 1511 1514 1516 1518 1520 1522 1525 1527 1529 1531 1533 1535 1537 1538 1539 1541 1543 1545 1547 1549 1551 1553 1555 1557 1558 1559 1560 1560 1562 1563 1564 1565
1490 1492 1493 1495 1497 1499 1500 1502 1504 1506 1508 1511 1513 1515 1517 1519 1521 1523 1525 1527 1529 1531 1533 1534 1535 1537 1539 1542 1544 1546 1548 1550 1551 1553 1554 1555 1556 1557 1558 1559 1560 1561
1485 1486 1488 1491 1493 1494 1495 1497 1500 1502 1505 1508 1510 1512 1513 1515 1517 1519 1521 1523 1525 1527 1528 1530 1531 1533 1535 1538 1540 1542 1544 1546 1548 1549 1550 1551 1552 1553 1554 1555 1557 1558
1481 1482 1484 1486 1487 1489 1491 1493 1496 1498 1501 1504 1506 1508 1510 1511 1513 1516 1518 1520 1521 1523 1524 1526 1527 1529 1531 1534 1536 1538 1540 1542 1543 1545 1546 1548 1549 1550 1551 1552 1553 1554
1478 1478 1480 1481 1482 1484 1487 1489 1492 1494 1497 1500 1502 1504 1506 1509 1510 1512 1514 1515 1517 1519 1521 1522 1524 1525 1527 1529 1532 1534 1536 1538 1540 1541 1542 1544 1545 1546 1547 1548 1549 1551
1474 1474 1475 1476 1477 1480 1483 1486 1488 1491 1494 1496 1498 1501 1503 1505 1507 1508 1510 1511 1513 1515 1517 1519 1520 1522 1524 1526 1528 1530 1532 1534 1535 1537 1538 1540 1541 1542 1544 1544 1546 1547
Wind_Speed
39 39 38 37 35 32 30 28 27 26 25 24 21 18 15 13 12 13 13 14 14 13 14 14 13 13 15 15 15 14 11 10 11 10 10 10 9 10 13 16 15 12
40 40 39 38 37 34 32 30 28 27 27 25 23 20 18 15 14 14 13 14 15 15 14 14 14 14 15 14 15 15 13 10 11 11 10 10 10 10 11 14 15 14
42 41 41 40 39 37 35 33 31 29 28 26 25 23 20 18 17 16 15 14 15 16 16 15 15 15 15 14 14 15 14 12 10 10 11 11 11 11 10 12 14 15
43 42 41 40 39 38 36 35 33 31 30 28 26 24 22 20 19 18 18 17 16 16 17 16 16 16 15 15 15 15 15 13 12 12 12 12 12 12 11 11 12 13
43 42 42 41 40 38 38 37 35 33 31 30 28 26 24 22 21 20 20 20 18 17 18 18 17 17 16 16 15 16 16 15 15 14 14 12 12 12 12 12 12 12
45 44 43 42 41 40 39 38 36 35 33 32 30 28 26 24 23 22 22 22 21 20 19 19 18 18 17 17 16 16 16 16 16 16 15 14 13 13 12 12 12 13
47 46 45 44 42 41 41 40 38 37 35 34 32 30 28 26 25 24 24 23 22 22 22 21 21 20 19 18 17 17 16 16 16 17 16 15 14 14 14 13 13 13
49 47 46 45 44 44 43 41 41 39 38 36 35 33 31 29 27 26 25 25 24 23 23 23 23 22 21 20 19 18 18 17 17 17 17 17 16 16 15 15 14 13
50 48 47 47 46 45 45 43 42 41 40 38 37 35 33 31 30 29 28 27 26 25 24 24 25 24 23 23 21 20 19 18 18 18 18 18 18 17 16 16 15 14
50 49 49 48 47 47 46 45 43 42 41 39 38 36 35 33 31 31 31 30 29 28 26 25 26 26 25 25 24 22 21 20 19 19 18 18 18 17 17 16 16 16
51 51 50 49 48 47 46 45 44 43 42 40 39 38 36 34 33 33 33 33 32 31 29 27 26 26 26 26 25 24 23 21 21 20 19 18 17 17 17 17 17 17
51 52 52 51 50 48 47 46 44 43 42 41 40 39 38 36 35 34 35 35 34 33 31 29 28 28 27 26 25 25 24 24 23 22 21 20 19 18 18 18 18 18
51 53 53 52 51 49 47 46 45 44 43 42 41 40 39 38 37 36 36 36 35 34 32 31 30 30 29 28 26 26 25 25 25 24 24 23 21 20 19 19 19 19
50 53 53 53 51 50 48 47 46 45 44 43 42 41 41 40 38 37 37 36 36 35 34 33 32 32 31 30 29 28 26 26 25 25 25 25 24 22 21 20 20 19
49 51 52 52 51 50 49 49 47 46 45 43 42 42 41 41 40 39 38 38 37 36 35 34 34 33 33 32 31 30 28 27 26 25 26 26 25 24 23 21 20 19
46 49 51 51 51 51 50 49 48 46 45 44 43 42 41 42 42 41 40 39 38 37 37 36 35 35 34 33 31 30 29 28 27 26 26 26 26 25 24 23 21 20
45 48 50 50 51 51 50 50 49 47 46 45 44 43 41 41 42 42 42 40 39 38 37 37 37 36 35 34 32 31 30 30 29 28 27 27 26 25 24 23 22 21
45 46 48 50 51 51 51 50 49 48 47 46 45 44 42 41 42 44 43 41 40 39 38 38 38 37 36 34 32 31 30 30 30 30 29 29 28 27 26 24 23 23
45 46 48 49 50 51 51 50 49 49 48 48 47 45 43 41 42 44 43 42 41 40 39 38 38 37 36 35 33 31 30 30 30 30 31 30 30 30 28 27 26 24
46 46 47 49 49 50 50 50 50 50 49 49 47 46 44 43 42 43 44 42 41 40 39 38 37 37 36 35 33 32 31 30 30 30 31 32 31 31 31 30 28 27
48 47 47 48 49 49 50 50 51 51 50 49 48 47 46 45 43 43 44 43 42 41 40 39 38 37 35 34 33 31 30 30 30 31 32 32 32 32 32 32 30 29
50 48 48 48 49 49 50 51 51 51 51 50 48 48 47 46 45 44 44 44 43 42 41 40 39 38 35 33 31 29 29 29 30 31 32 32 33 33 33 33 32 31
51 49 49 48 49 50 50 51 51 51 51 50 49 48 48 47 47 46 45 44 44 44 43 42 40 39 37 34 31 29 29 29 30 31 31 32 32 32 33 33 33 32
53 50 49 49 49 50 50 50 51 51 51 51 50 49 48 48 47 46 46 45 45 45 45 44 42 41 39 36 33 31 30 30 30 30 30 30 31 31 33 34 34 32
53 51 50 49 49 50 50 50 50 51 51 51 50 49 48 47 46 46 46 46 45 45 45 45 44 42 40 38 36 33 32 31 30 30 30 29 29 30 32 34 35 34
52 52 51 50 49 49 49 50 50 50 50 51 51 49 47 46 45 46 46 46 46 45 45 46 46 44 42 40 38 36 34 33 32 32 31 30 29 29 30 32 35 36
Wind_Direction
213 212 212 213 216 218 216 214 212 213 217 220 224 225 223 223 218 213 210 207 209 208 202 202 198 192 191 188 191 203 209 202 197 193 193 190 185 183 173 166 171 176
215 215 216 216 218 221 222 222 220 219 220 221 224 227 227 229 228 225 218 209 209 212 208 207 204 197 198 199 196 202 210 210 202 198 196 197 198 191 178 176 182 187
216 216 217 218 219 221 224 226 226 226 225 225 225 226 226 228 229 229 227 218 211 212 212 211 209 204 202 203 201 204 210 212 209 207 204 202 203 203 192 181 184 191
217 218 219 220 221 222 223 225 227 228 228 228 228 228 227 227 228 228 229 226 216 212 213 213 212 210 208 205 203 205 208 209 209 213 213 209 207 209 205 192 184 188
219 219 219 220 221 222 223 224 226 228 228 229 230 231 230 228 226 224 225 227 222 214 212 214 214 213 213 212 208 207 208 207 207 212 216 216 213 212 214 208 194 188
219 220 220 221 221 221 222 223 225 227 229 230 230 232 232 229 226 224 223 225 224 219 214 214 215 214 213 216 215 212 212 210 208 211 215 217 216 214 215 218 212 200
219 220 221 222 222 222 223 223 225 227 229 231 232 231 231 228 227 226 225 226 225 222 218 214 216 217 214 214 217 216 215 214 213 213 215 217 218 218 216 219 223 216
219 220 221 222 222 223 224 225 225 227 229 231 231 231 230 226 226 227 228 228 227 225 221 217 217 219 218 215 216 218 217 217 217 216 216 217 217 220 220 222 225 225
219 219 220 221 222 223 224 225 226 227 229 230 230 230 229 225 223 225 227 228 229 229 226 220 218 220 222 220 219 220 221 221 222 222 221 220 220 221 222 223 226 229
218 218 219 220 221 222 224 225 225 226 227 228 228 228 228 226 222 222 225 227 229 230 229 223 219 220 223 224 223 224 224 223 224 227 227 224 222 223 224 226 228 231
218 218 218 219 220 222 223 223 224 225 225 226 226 226 226 225 221 219 222 225 227 230 230 225 221 221 222 223 224 224 225 225 224 226 229 228 225 224 226 228 231 234
218 218 218 219 220 221 221 221 221 222 222 223 224 223 224 224 222 219 220 223 226 230 232 229 225 225 224 224 224 224 224 225 225 225 228 230 229 227 226 228 232 236
218 218 218 218 219 220 220 219 219 220 221 222 223 222 221 221 221 220 220 222 225 228 231 232 229 228 227 227 227 226 225 224 224 225 227 231 233 231 229 229 233 238
218 219 218 218 218 219 219 218 218 219 220 222 222 222 220 219 221 221 221 222 225 227 230 231 230 229 228 228 229 229 230 229 227 226 228 231 235 236 236 234 235 238
218 218 217 217 217 217 217 218 218 218 219 220 222 222 221 219 220 222 222 221 224 226 228 230 229 229 228 229 230 230 232 233 232 231 231 232 235 238 239 239 238 239
217 217 217 216 216 217 217 217 218 217 217 219 221 222 221 219 218 220 221 222 223 225 226 228 228 229 230 230 232 233 234 235 236 236 236 236 237 238 239 239 239 239
217 216 217 216 216 216 217 216 217 217 216 218 220 222 221 219 217 218 220 221 223 225 225 226 228 229 230 231 233 235 235 236 238 240 241 241 241 242 242 243 242 242
218 217 217 216 216 216 216 216 216 216 216 216 218 221 221 218 215 216 219 221 222 225 226 226 228 230 231 232 233 235 236 238 239 241 243 244 245 246 247 248 247 248
219 218 218 217 217 217 216 216 215 214 215 215 217 219 220 219 215 215 217 220 222 224 226 227 228 230 231 232 233 234 236 237 238 240 243 245 246 248 249 250 251 251
221 220 219 218 218 217 216 215 214 214 215 215 216 217 218 218 216 214 215 219 222 224 227 228 230 230 231 233 234 234 234 235 237 239 241 244 246 248 250 251 252 253
223 221 220 219 218 217 216 216 215 215 215 214 214 215 217 219 218 215 215 217 221 224 227 229 231 232 233 233 234 234 234 234 235 237 238 240 244 246 249 251 252 254
222 222 221 220 218 217 217 216 216 215 214 214 213 214 216 218 219 218 216 216 219 222 226 229 231 233 234 234 235 235 234 233 234 235 236 237 240 243 246 248 251 252
220 221 221 220 218 218 218 218 217 216 215 214 213 213 215 217 218 219 218 218 218 220 224 228 230 233 235 235 235 235 234 233 234 235 236 237 238 241 243 246 248 250
219 220 221 220 219 219 219 219 218 217 216 214 213 213 215 217 218 219 219 220 219 220 222 225 228 232 234 235 235 235 233 234 234 235 236 236 237 239 241 243 246 248
219 219 220 221 221 221 220 220 219 218 217 215 214 214 215 217 218 218 219 220 221 221 222 224 226 229 232 234 235 234 234 234 235 235 236 237 237 238 240 241 242 245
219 219 220 221 222 222 221 220 220 219 217 216 215 215 215 216 218 219 220 221 221 222 223 224 225 227 229 231 232 233 233 234 234 235 237 239 239 239 240 240 241 242